Temperature
19 18 18 18 18 18 17 17 17 17 17 17 17 18 18 18 18 18 18 18 18 18 18 18 18 18 18 18 17 17 17 17 17 17 17 17 17 17 17 17 17 17 17
18 18 18 18 18 18 17 17 17 17 17 17 17 17 17 18 18 18 18 18 18 18 18 18 18 18 18 18 18 17 17 17 17 17 17 17 17 17 17 17 17 17 17
17 17 18 18 18 17 17 17 17 17 17 17 17 17 17 17 17 17 17 18 18 18 18 18 18 17 18 18 18 18 17 17 17 17 17 17 17 17 17 17 17 16 16
17 17 17 18 17 17 17 17 17 17 17 17 17 17 17 17 17 17 17 17 17 18 18 18 18 18 18 18 18 18 18 18 17 17 17 17 17 17 17 17 17 16 16
17 17 17 17 17 17 17 17 16 16 16 16 16 16 16 16 17 17 17 17 17 17 18 18 18 18 18 18 18 18 18 18 18 18 17 17 17 17 17 17 17 17 16
17 17 17 17 17 17 17 16 16 16 16 16 16 16 16 16 16 16 17 17 17 17 17 17 18 18 18 18 18 18 18 18 18 18 18 17 17 17 17 17 17 17 17
17 17 17 17 17 17 17 16 16 16 16 16 16 16 16 16 16 16 16 17 17 17 17 17 17 17 18 18 18 18 18 18 18 18 18 18 18 17 17 17 17 17 17
17 17 17 17 17 17 17 16 16 16 16 15 15 16 16 16 16 16 16 16 16 16 16 17 17 17 17 18 18 18 18 18 18 18 18 18 18 18 17 17 17 17 17
17 17 17 17 17 17 17 17 16 16 16 15 15 15 16 16 16 16 16 16 16 16 16 16 17 17 17 18 18 18 18 18 18 18 18 18 18 18 17 17 17 17 17
17 17 17 17 17 17 17 17 16 16 16 16 15 15 15 15 15 15 15 16 16 16 16 16 17 17 17 17 18 18 18 18 18 17 18 17 17 17 17 17 17 17 17
16 16 16 16 16 16 16 16 16 16 16 16 15 15 15 15 15 15 15 16 16 16 16 16 16 17 17 17 17 17 18 18 18 17 17 17 17 17 17 17 17 17 17
15 15 16 16 16 16 16 16 16 16 16 16 15 15 15 15 15 14 14 15 15 16 16 16 16 16 16 17 17 17 17 17 17 17 17 17 17 17 17 17 17 16 17
14 14 14 15 15 15 15 15 15 16 16 16 16 15 15 15 14 14 14 14 14 15 15 15 16 16 16 16 16 17 17 17 17 17 17 17 17 17 16 16 16 16 16
12 13 13 13 13 14 14 15 15 15 15 15 15 15 15 15 14 14 14 13 13 14 14 15 15 15 15 16 16 16 16 16 17 17 17 16 16 16 16 16 16 16 16
11 12 12 12 12 13 13 14 14 14 14 15 15 15 15 15 14 14 14 13 13 13 13 14 14 14 14 15 15 15 16 16 16 16 16 16 16 16 16 16 16 16 16
11 11 11 11 11 12 12 12 13 13 14 14 14 14 14 14 14 14 14 13 13 13 13 13 13 13 13 14 14 14 15 15 15 16 15 15 15 15 15 15 15 15 15
10 10 10 10 10 11 11 11 12 12 12 13 13 14 14 14 14 14 14 13 13 13 13 13 13 13 13 13 13 13 14 14 14 14 14 15 15 15 15 15 15 15 15
10 10 10 10 10 10 10 11 11 11 11 12 12 13 13 13 13 14 14 13 13 13 13 13 13 13 13 13 12 12 12 13 13 13 13 14 14 14 14 14 14 14 14
10 10 10 10 10 10 10 10 10 10 11 11 11 12 12 13 13 13 13 13 13 13 13 13 13 13 12 12 12 12 12 12 12 12 13 13 13 13 13 13 13 13 13
10 10 10 9 9 9 9 9 9 9 10 10 10 11 11 12 12 13 13 13 13 13 13 13 12 12 12 12 12 12 11 11 12 12 12 12 12 12 12 12 13 13 13
9 9 9 9 9 9 9 9 9 9 9 9 10 10 10 11 12 12 13 13 13 13 13 12 12 12 12 12 12 11 11 11 11 11 11 11 11 12 12 12 12 12 12
9 9 9 9 9 9 9 9 9 9 9 9 9 9 10 10 11 12 12 13 13 13 13 13 12 12 12 12 12 12 11 11 10 10 11 11 11 11 11 11 11 11 11
8 8 8 8 8 8 8 8 9 8 8 9 9 9 9 10 11 11 12 12 12 13 13 13 13 13 12 12 12 12 12 11 11 10 10 10 10 10 10 10 10 10 10
7 7 7 8 8 8 8 8 8 8 8 8 9 9 9 10 10 11 11 12 12 13 13 13 13 13 13 13 13 12 12 11 10 10 10 10 9 10 9 9 9 9 9
6 6 6 7 7 7 8 8 8 8 8 8 8 9 9 9 10 10 11 11 12 12 12 12 13 12 12 12 12 12 11 11 10 9 9 10 9 9 9 8 8 8 8
5 5 6 6 7 7 7 7 8 8 8 8 8 8 8 9 9 10 10 11 11 12 12 12 12 12 12 12 12 12 12 11 10 9 9 10 9 9 7 7 7 7 7
Wind_Speed
9 8 7 10 11 12 10 8 7 8 9 10 12 11 10 11 12 12 12 15 16 16 17 17 18 18 20 22 24 24 26 26 25 24 24 23 22 21 20 20 19 19 19
9 9 9 8 9 11 11 8 7 7 7 6 7 8 8 9 10 11 12 13 16 16 16 16 17 17 18 19 20 22 25 26 25 25 25 24 23 23 22 22 21 21 20
12 9 9 9 8 10 9 6 5 4 4 4 5 6 6 7 8 9 11 12 13 14 16 17 17 17 17 17 19 21 22 24 25 25 25 25 25 24 24 24 24 24 23
15 10 9 9 7 6 5 4 4 4 4 4 4 4 5 5 7 9 10 11 11 11 13 15 17 18 18 18 19 20 21 22 24 25 25 26 25 25 25 25 25 25 25
15 10 9 7 6 4 4 4 3 3 3 4 4 4 4 5 6 7 8 9 10 11 12 13 16 18 19 19 20 20 20 21 21 23 25 26 26 25 26 26 26 26 26
12 8 7 6 5 5 4 4 3 3 2 3 3 3 3 4 5 6 7 6 7 9 10 11 11 13 17 19 20 21 21 20 20 21 23 23 23 23 24 25 26 26 26
9 7 6 6 6 6 6 5 3 3 2 2 1 1 2 3 3 4 4 4 4 5 6 8 9 10 10 14 18 20 21 21 21 21 20 20 20 20 22 24 25 26 27
6 6 7 7 7 5 5 6 4 3 2 3 3 1 2 2 1 1 1 2 2 2 3 5 6 8 10 10 12 17 20 21 22 21 20 20 20 20 21 23 24 25 26
3 4 7 6 7 7 7 7 6 6 4 3 3 3 3 3 2 2 1 1 2 2 3 4 5 8 9 10 11 15 18 19 21 21 21 21 20 19 19 19 21 23 24
4 2 3 6 7 6 7 7 7 5 5 4 3 3 2 3 2 1 2 2 3 3 4 4 5 7 8 8 10 13 16 17 18 19 21 21 20 19 18 17 18 20 21
6 6 4 2 4 6 7 7 7 7 6 5 4 3 2 1 2 2 3 3 3 3 4 5 5 5 6 6 7 9 12 14 15 16 18 20 19 18 18 17 17 17 18
4 6 5 4 3 4 6 7 8 9 8 6 5 5 4 3 4 4 4 3 3 3 4 4 3 3 4 4 5 6 8 10 11 12 14 15 17 17 17 17 17 17 17
3 4 4 4 4 4 5 6 8 9 9 8 8 6 6 5 4 4 3 3 3 3 3 2 1 2 3 3 3 3 4 7 8 9 10 11 12 13 13 13 14 13 13
4 4 4 4 4 4 4 5 7 9 8 10 10 8 6 7 6 5 4 3 2 2 2 2 1 2 3 4 4 4 2 5 8 9 10 10 9 9 9 8 7 6 6
5 5 4 4 3 3 3 3 5 8 8 10 10 10 8 7 7 7 6 5 4 2 2 2 1 2 3 4 5 5 5 8 11 12 13 13 13 12 12 11 10 9 8
7 7 6 5 5 3 3 2 3 5 7 8 8 9 9 7 7 7 7 6 6 5 3 2 1 1 2 3 6 7 9 12 13 14 15 16 15 15 15 15 14 14 13
8 8 7 7 6 6 4 3 3 3 5 6 8 9 11 9 8 7 7 7 7 6 6 3 1 1 2 5 5 7 8 9 10 14 15 16 16 16 16 16 16 16 15
10 9 8 8 8 7 5 5 5 4 5 5 6 8 10 9 10 8 8 8 8 8 6 6 3 2 3 6 7 7 6 8 9 13 14 15 16 16 17 17 17 17 17
11 10 9 9 9 8 7 7 7 6 6 6 6 6 7 9 10 9 9 9 8 7 7 5 4 3 2 5 7 7 8 7 8 11 14 14 15 16 17 17 18 19 19
12 12 11 11 10 9 9 8 8 7 7 7 7 6 6 7 9 10 9 10 9 8 7 6 5 4 4 6 8 8 7 5 6 7 10 13 16 17 17 18 18 19 21
13 12 12 11 10 9 9 9 9 8 7 7 7 7 7 8 10 9 8 9 10 9 8 8 7 6 6 8 8 6 8 8 6 5 7 7 8 10 12 15 17 19 21
12 11 12 12 11 10 12 14 11 8 8 8 7 7 7 9 10 12 13 13 14 12 11 10 9 9 10 9 8 11 10 8 5 4 5 6 6 8 8 10 15 18 20
11 11 11 11 12 12 15 15 15 9 9 8 8 7 7 6 8 8 10 13 15 15 14 12 12 11 13 13 13 14 12 7 5 8 7 6 5 7 7 10 15 18 19
10 10 10 11 11 12 15 16 15 11 9 9 9 9 8 7 7 8 7 9 10 12 14 12 12 11 12 14 15 12 13 9 9 5 4 5 4 5 5 8 12 15 16
10 9 7 9 10 11 14 15 13 7 8 10 9 9 9 9 10 11 9 9 10 9 11 13 13 11 14 18 17 14 14 14 10 5 2 4 5 5 5 5 8 11 13
10 10 9 9 10 10 12 14 12 6 7 7 7 7 10 11 11 12 10 10 11 9 8 9 10 12 15 20 22 19 17 17 13 6 4 5 8 6 5 3 4 7 9
Wind_Direction
234 232 233 235 236 238 240 240 236 232 230 231 232 229 233 236 239 242 246 251 253 250 246 245 244 241 237 233 226 221 217 214 212 212 211 211 212 211 210 210 210 210 209
236 234 235 235 236 236 236 235 229 228 227 224 232 229 233 240 242 244 247 252 255 256 254 251 251 247 243 240 230 225 220 217 214 213 213 213 213 214 213 213 213 213 213
240 237 236 237 235 230 229 228 223 210 211 213 227 233 234 239 241 246 249 250 254 257 256 255 255 251 246 241 232 227 223 219 216 214 214 214 214 215 216 216 216 216 215
242 237 234 235 229 218 209 205 199 197 206 208 218 230 231 234 240 244 249 250 252 256 257 256 254 251 246 243 236 231 226 221 217 216 216 215 215 216 218 218 219 219 218
243 232 228 225 206 197 194 193 184 186 197 207 219 231 235 236 242 249 249 250 249 249 252 255 255 253 249 245 240 235 232 225 220 219 218 218 218 218 219 221 222 222 221
238 220 214 206 188 184 183 180 170 174 188 194 218 238 248 249 247 246 251 255 254 253 251 251 252 253 250 246 240 235 233 229 224 222 220 219 219 219 221 223 224 224 222
225 202 199 191 185 185 187 180 164 174 185 164 155 290 297 269 257 247 246 247 254 259 257 254 249 248 250 248 241 236 234 232 229 224 220 217 218 220 223 225 226 225 223
229 207 199 193 189 183 183 181 168 164 179 173 162 163 304 326 321 303 269 231 262 278 277 274 264 254 248 245 243 238 235 232 230 225 220 219 221 223 225 227 228 227 225
260 219 208 198 193 187 192 191 180 171 182 194 190 165 178 224 288 318 316 312 321 305 300 298 282 271 259 248 246 241 234 229 228 226 221 218 217 219 225 226 231 231 227
334 304 239 213 203 199 198 195 187 179 168 183 199 212 197 171 175 298 313 313 310 292 297 301 299 290 273 256 246 239 232 227 224 222 219 215 213 215 220 225 230 232 231
360 3 343 273 228 216 213 201 187 187 183 180 181 178 187 193 188 200 262 303 312 289 287 290 294 295 290 274 257 244 232 225 219 216 214 211 208 208 214 221 226 232 233
345 356 356 341 293 247 226 214 204 197 197 191 190 184 176 173 189 196 226 255 285 290 296 293 296 303 305 297 273 252 229 218 211 207 205 202 203 205 209 216 221 228 234
312 321 334 327 311 283 254 225 212 210 203 201 202 203 201 200 177 176 201 237 263 286 303 311 326 340 338 334 313 294 233 199 190 188 186 184 189 198 202 207 215 219 223
263 274 290 300 302 299 280 240 225 220 211 211 211 206 207 209 197 189 189 197 241 266 277 288 344 27 24 14 18 27 70 138 144 146 145 144 146 152 155 158 168 179 192
262 262 267 278 287 292 294 273 239 230 217 215 216 212 212 210 201 200 197 193 197 228 261 263 315 48 52 43 41 59 74 99 109 115 118 118 117 119 119 117 116 117 120
256 265 269 267 269 270 267 265 269 250 232 224 217 214 216 213 204 200 200 201 203 207 233 232 217 90 81 81 73 78 84 89 94 102 106 107 108 108 108 107 106 104 102
249 250 256 262 265 263 251 237 243 262 253 243 228 220 222 212 206 203 197 196 202 206 230 242 211 147 127 119 98 88 83 80 87 94 100 103 104 104 104 103 102 100 99
244 243 243 246 253 255 246 236 241 240 246 255 248 231 227 219 213 205 198 199 201 202 213 230 213 177 150 141 123 105 90 85 88 91 96 100 102 102 102 101 100 99 97
241 239 235 237 242 244 243 242 237 231 229 239 248 246 237 221 218 209 202 202 200 199 204 213 213 183 146 143 128 111 102 95 93 94 93 95 99 101 102 101 101 99 98
236 236 233 232 235 239 240 241 240 236 228 226 229 238 245 234 227 215 206 204 195 193 197 205 209 189 160 150 142 137 123 109 101 97 93 95 98 97 99 102 103 102 100
237 233 231 231 231 232 237 234 232 235 229 229 228 232 235 241 241 226 212 201 191 192 195 202 204 190 173 166 159 148 136 120 95 105 104 91 94 92 92 96 102 105 102
239 229 227 227 228 231 231 228 222 225 228 230 236 239 240 238 244 237 222 205 192 192 196 199 203 198 186 169 156 151 144 140 131 140 113 92 89 90 87 97 105 107 105
242 231 226 222 226 230 232 235 231 223 228 230 233 239 250 240 222 232 227 215 207 202 197 198 203 199 185 171 162 161 161 149 137 151 130 105 94 88 86 98 107 109 109
248 238 231 223 223 231 230 234 237 231 230 234 235 236 242 251 234 218 217 217 215 212 209 209 213 203 184 172 168 158 145 118 109 128 124 116 116 100 91 93 107 114 115
248 238 228 223 223 232 231 231 230 223 226 234 237 235 235 245 237 215 211 214 217 217 213 209 205 193 169 159 152 143 142 140 141 149 133 118 133 115 101 94 100 116 123
246 239 234 226 224 231 234 231 221 213 221 232 239 238 235 237 233 214 213 209 213 209 192 189 189 177 167 160 158 160 158 155 150 151 167 132 148 137 121 117 116 116 120
Height
1524 1525 1525 1526 1526 1527 1528 1528 1528 1529 1530 1530 1531 1532 1532 1533 1533 1535 1536 1537 1538 1539 1540 1541 1543 1544 1545 1547 1548 1550 1552 1554 1556 1558 1561 1563 1566 1568 1570 1572 1574 1576 1579
1520 1521 1521 1521 1522 1522 1522 1523 1523 1524 1525 1525 1526 1527 1528 1528 1529 1530 1531 1533 1534 1535 1536 1537 1538 1540 1541 1543 1544 1546 1548 1550 1552 1554 1557 1560 1562 1564 1567 1569 1571 1573 1576
1515 1516 1516 1516 1517 1517 1517 1518 1518 1518 1519 1520 1521 1522 1523 1524 1525 1526 1527 1528 1529 1530 1531 1532 1534 1535 1537 1538 1540 1542 1544 1546 1548 1550 1553 1555 1558 1561 1563 1565 1568 1570 1572
1509 1510 1511 1511 1512 1512 1512 1513 1513 1513 1514 1515 1515 1517 1518 1518 1519 1520 1521 1522 1523 1524 1525 1527 1529 1530 1532 1534 1536 1538 1540 1542 1544 1546 1549 1551 1554 1556 1559 1561 1564 1566 1569
1503 1504 1505 1506 1507 1507 1507 1508 1509 1509 1510 1511 1511 1512 1513 1513 1514 1515 1515 1516 1517 1518 1519 1520 1522 1524 1526 1528 1530 1533 1535 1537 1539 1542 1544 1547 1549 1551 1554 1557 1559 1562 1564
1498 1499 1500 1501 1503 1503 1504 1504 1505 1506 1507 1507 1507 1507 1508 1508 1508 1509 1510 1511 1512 1512 1513 1515 1516 1518 1520 1522 1524 1527 1529 1532 1534 1537 1539 1542 1544 1547 1549 1552 1554 1557 1559
1494 1495 1496 1498 1499 1500 1500 1501 1501 1502 1503 1503 1504 1504 1504 1503 1503 1504 1504 1505 1506 1507 1508 1509 1511 1513 1514 1516 1518 1521 1523 1525 1528 1531 1534 1536 1539 1541 1544 1547 1549 1552 1555
1491 1492 1493 1495 1496 1496 1496 1497 1497 1498 1499 1499 1500 1500 1500 1500 1499 1499 1500 1501 1502 1503 1504 1505 1506 1508 1509 1511 1513 1515 1517 1520 1522 1525 1527 1530 1533 1535 1538 1541 1544 1547 1549
1486 1488 1490 1491 1492 1492 1493 1493 1493 1494 1494 1495 1496 1497 1497 1496 1496 1497 1497 1497 1498 1499 1499 1501 1502 1503 1505 1506 1508 1510 1512 1514 1516 1519 1521 1524 1526 1529 1532 1534 1538 1541 1543
1482 1484 1485 1486 1487 1488 1489 1489 1489 1490 1491 1491 1492 1493 1494 1493 1493 1494 1495 1495 1495 1495 1495 1496 1497 1498 1500 1501 1503 1505 1507 1509 1511 1513 1515 1517 1520 1522 1525 1528 1532 1534 1537
1478 1478 1479 1480 1481 1483 1484 1485 1485 1486 1487 1488 1488 1489 1489 1490 1490 1491 1491 1492 1492 1491 1491 1491 1492 1494 1495 1496 1498 1500 1502 1504 1506 1508 1510 1512 1514 1516 1520 1523 1525 1528 1531
1473 1473 1473 1473 1475 1476 1478 1479 1481 1482 1483 1484 1484 1485 1485 1486 1486 1487 1487 1487 1487 1487 1487 1487 1488 1489 1491 1492 1494 1496 1498 1499 1501 1503 1505 1507 1509 1511 1514 1517 1520 1522 1525
1468 1468 1468 1467 1468 1469 1471 1473 1474 1476 1478 1479 1480 1481 1481 1482 1483 1484 1485 1484 1484 1483 1483 1484 1484 1485 1487 1489 1490 1492 1494 1496 1497 1499 1501 1503 1505 1506 1509 1511 1514 1516 1518
1463 1463 1462 1462 1462 1462 1463 1465 1467 1470 1472 1473 1475 1476 1477 1478 1479 1480 1481 1482 1481 1481 1480 1481 1482 1482 1483 1485 1487 1489 1490 1492 1494 1495 1497 1499 1501 1503 1505 1507 1509 1511 1513
1458 1457 1456 1456 1456 1456 1456 1458 1460 1462 1465 1466 1469 1470 1472 1473 1475 1476 1477 1479 1480 1478 1478 1479 1480 1480 1481 1482 1484 1486 1488 1489 1491 1493 1494 1496 1498 1499 1501 1503 1505 1506 1508
1453 1452 1451 1450 1450 1450 1450 1451 1452 1454 1457 1459 1462 1464 1466 1468 1470 1472 1473 1474 1475 1476 1476 1476 1478 1479 1479 1480 1482 1484 1486 1487 1488 1490 1491 1493 1494 1496 1498 1499 1501 1503 1504
1447 1446 1445 1444 1444 1443 1444 1444 1445 1446 1448 1451 1454 1456 1459 1462 1464 1466 1468 1469 1471 1472 1472 1473 1475 1477 1478 1479 1480 1482 1484 1485 1487 1488 1489 1491 1492 1494 1495 1497 1498 1500 1501
1440 1439 1439 1438 1438 1438 1437 1438 1438 1439 1441 1443 1446 1448 1452 1455 1457 1460 1462 1464 1466 1468 1469 1469 1471 1474 1475 1477 1479 1481 1482 1484 1486 1487 1489 1490 1491 1493 1494 1495 1497 1498 1499
1432 1431 1431 1431 1432 1432 1432 1432 1432 1432 1433 1435 1437 1440 1444 1447 1450 1453 1456 1458 1461 1463 1464 1466 1468 1470 1472 1474 1477 1480 1481 1483 1485 1486 1488 1490 1491 1492 1494 1495 1496 1497 1499
1422 1422 1423 1423 1424 1425 1425 1426 1426 1426 1427 1428 1430 1432 1435 1438 1442 1445 1449 1452 1455 1457 1459 1461 1463 1466 1469 1471 1474 1477 1480 1482 1484 1486 1488 1489 1491 1492 1493 1495 1496 1497 1498
1411 1412 1414 1415 1416 1417 1418 1419 1420 1421 1422 1423 1424 1425 1427 1430 1433 1437 1442 1445 1448 1451 1453 1455 1458 1462 1464 1467 1471 1474 1477 1480 1483 1485 1487 1489 1491 1492 1493 1495 1496 1498 1499
1400 1402 1403 1405 1407 1409 1411 1412 1414 1415 1416 1417 1418 1419 1422 1423 1426 1429 1434 1438 1441 1444 1446 1449 1452 1455 1458 1462 1466 1470 1473 1477 1481 1484 1486 1488 1491 1492 1494 1496 1497 1499 1500
1389 1391 1393 1395 1398 1400 1403 1405 1407 1408 1410 1411 1413 1414 1416 1417 1419 1423 1426 1430 1433 1437 1440 1443 1446 1449 1453 1456 1461 1466 1470 1474 1477 1481 1485 1487 1491 1492 1495 1497 1498 1500 1501
1377 1380 1383 1386 1389 1392 1395 1397 1400 1401 1403 1404 1406 1407 1409 1411 1414 1417 1419 1422 1426 1429 1433 1437 1440 1444 1448 1452 1457 1461 1466 1471 1476 1481 1485 1486 1490 1493 1495 1497 1499 1501 1502
1367 1369 1373 1377 1380 1383 1387 1390 1392 1394 1396 1398 1400 1402 1403 1405 1408 1410 1413 1415 1419 1423 1427 1431 1435 1439 1443 1448 1452 1457 1462 1467 1472 1479 1484 1486 1489 1492 1496 1498 1500 1502 1503
1357 1360 1364 1368 1372 1375 1379 1382 1385 1387 1389 1391 1394 1396 1398 1400 1402 1404 1406 1409 1412 1416 1421 1425 1429 1433 1437 1442 1447 1452 1457 1462 1468 1475 1481 1484 1487 1491 1496 1499 1500 1502 1504